Location: Aalen
(48.8330°N, 10.1000°E)
Time: 01:08:37
(UTC+02:00)

Transit 2A - Pass Details

Date: 31 July 2021
Orbit: 594 x 964 km, 66.7° (Epoch: 26 September)

Event Time Altitude Azimuth Distance (km) Brightness Sun altitude
Rises 16:28:29 0° 322° (NW) 3,215 9.4 42.2°
Reaches altitude 10° 16:30:47 10° 320° (NW) 2,342 8.8 41.8°
Maximum altitude 16:36:09 67° 239° (WSW) 913 7.8 41.0°
Drops below altitude 10° 16:42:03 10° 158° (SSE) 2,567 8.8 40.1°
Sets 16:44:40 0° 156° (SSE) 3,547 9.4 39.7°
